Ahorcados, Mexico

2:37 AM CDT on August 23, 2017 (GMT -0500)
Lic Adolfo Lopez Mateos International | | Change Station

Elev 8451 ft 19.35 °N, 99.57 °W | Updated 50 minutes ago

Mostly Cloudy
Mostly Cloudy
52 °F
Feels Like 52 °F
N
0
Wind Variable Wind from North

Today
High -- | Low -- °F
--% Chance of Precip.
Yesterday
High -- | Low -- °F
Precip. -- in
Pressure 30.42 in
Visibility 7.0 miles
Clouds Few 1500 ft
Few 7000 ft
Dew Point 48 °F
Humidity 88%
Rainfall 0.00 in
Snow Depth Not available.
7:24 AM 8:03 PM
Waxing Crescent, 3% visible
METAR MMTO 230647Z 00000KT 7SM FEW015 FEW070 11/09 A3042 RMK 8/530 HZY
Pressure 30.42 in
Visibility 7.0 miles
Clouds Few 1500 ft
Few 7000 ft
Dew Point 48 °F
Humidity 88%
Rainfall 0.00 in
Snow Depth Not available.
7:24 AM 8:03 PM
Waxing Crescent, 3% visible
METAR MMTO 230647Z 00000KT 7SM FEW015 FEW070 11/09 A3042 RMK 8/530 HZY

Get Severe Weather Alerts

Thanks for signing up!

Be on the lookout for a verification email in your inbox.

You'll start receiving the daily forecast at 6 AM.

×

10-Day Weather Forecast

No radar image for this location.
×

Almanac

Astronomy

Aug. 23, 2017 Rise Set
Actual Time
Civil Twilight
Nautical Twilight
Astronomical Twilight
Moon
Length of Visible Light
Length of Day
Tomorrow will be .
, % of the Moon is Illuminated

Today's Extremes

Country Highs Country Lows

Community

WunderPhotos

Category 6

Welcome to Category 6. This is the collective home for Weather Underground's featured writeups by Dr. Jeff Masters (right), Bob Henson (left), Chris Burt, and other regular contributors.

Nearby

Air Quality

  Air Quality AQ Index Pollutant
Not available.

Snow Depth

Station Depth Elevation

Earthquake Activity

City Distance Mag. Time & Date
Minimum magnitude displayed is 2.5.

Coastal Water Temperatures

Place Temperature

Stations

Nearby Weather Stations

Station Location Temp. Windchill Dew Point Humidity Wind Precip. Elev Updated Type